Time,TemperatureF,DewpointF,PressureIn,WindDirection,WindDirectionDegrees,WindSpeedMPH,WindSpeedGustMPH,Humidity,HourlyPrecipIn,Conditions,Clouds,dailyrainin,SoftwareType,DateUTC
2013-03-05 00:02:00,25.2,23.2,28.64,East,86,4.0,6.3,92,0.00,,,-99.99,FreeWX-Wi 1.01,2013-03-05 06:02:00,
2013-03-05 00:08:00,25.0,23.0,28.64,East,85,4.0,5.8,92,0.00,,,-99.99,FreeWX-Wi 1.01,2013-03-05 06:08:00,
2013-03-05 00:13:00,25.0,23.0,28.64,East,84,4.0,5.4,92,0.00,,,-99.99,FreeWX-Wi 1.01,2013-03-05 06:13:00,
2013-03-05 00:18:00,25.0,23.0,28.64,East,83,4.0,4.5,92,0.00,,,-99.99,FreeWX-Wi 1.01,2013-03-05 06:18:00,
2013-03-05 00:23:00,24.8,22.8,28.64,East,82,4.0,4.0,92,0.00,,,-99.99,FreeWX-Wi 1.01,2013-03-05 06:23:00,
2013-03-05 00:28:00,24.8,22.8,28.64,East,82,4.0,5.8,92,0.00,,,-99.99,FreeWX-Wi 1.01,2013-03-05 06:28:00,
2013-03-05 00:33:00,24.8,22.8,28.64,East,83,4.0,6.3,92,0.00,,,-99.99,FreeWX-Wi 1.01,2013-03-05 06:33:00,
2013-03-05 00:38:00,24.8,22.8,28.64,East,83,4.0,6.3,92,0.00,,,-99.99,FreeWX-Wi 1.01,2013-03-05 06:38:00,
2013-03-05 00:43:00,24.8,22.6,28.64,East,84,4.0,6.3,91,0.00,,,-99.99,FreeWX-Wi 1.01,2013-03-05 06:43:00,
2013-03-05 00:48:00,24.8,22.6,28.64,East,85,4.0,5.8,91,0.00,,,-99.99,FreeWX-Wi 1.01,2013-03-05 06:48:00,
2013-03-05 00:54:00,24.8,22.6,28.64,East,87,4.0,5.8,91,0.00,,,-99.99,FreeWX-Wi 1.01,2013-03-05 06:54:00,
2013-03-05 00:59:00,24.8,22.6,28.64,East,88,4.0,5.4,91,0.00,,,-99.99,FreeWX-Wi 1.01,2013-03-05 06:59:00,
2013-03-05 01:04:00,24.8,22.8,28.64,East,89,4.0,4.0,92,0.00,,,-99.99,FreeWX-Wi 1.01,2013-03-05 07:04:00,
2013-03-05 01:09:00,24.8,22.8,28.64,East,90,4.0,4.9,92,0.00,,,-99.99,FreeWX-Wi 1.01,2013-03-05 07:09:00,
2013-03-05 01:14:00,24.8,22.8,28.64,East,92,4.0,5.4,92,0.00,,,-99.99,FreeWX-Wi 1.01,2013-03-05 07:14:00,
2013-03-05 01:19:00,24.8,22.8,28.64,East,92,4.0,5.8,92,0.00,,,-99.99,FreeWX-Wi 1.01,2013-03-05 07:19:00,
2013-03-05 01:24:00,24.8,22.8,28.64,East,92,4.0,5.4,92,0.00,,,-99.99,FreeWX-Wi 1.01,2013-03-05 07:24:00,
2013-03-05 01:29:00,24.8,23.0,28.64,East,93,4.0,4.9,93,0.00,,,-99.99,FreeWX-Wi 1.01,2013-03-05 07:29:00,
2013-03-05 01:35:00,25.0,23.0,28.64,East,92,4.0,4.9,92,0.00,,,-99.99,FreeWX-Wi 1.01,2013-03-05 07:35:00,
2013-03-05 01:40:00,25.0,23.0,28.64,East,90,4.0,4.9,92,0.00,,,-99.99,FreeWX-Wi 1.01,2013-03-05 07:40:00,
2013-03-05 01:45:00,25.0,23.0,28.64,East,89,4.0,4.5,92,0.00,,,-99.99,FreeWX-Wi 1.01,2013-03-05 07:45:00,
2013-03-05 01:50:00,25.0,23.0,28.64,East,88,3.0,4.0,92,0.00,,,-99.99,FreeWX-Wi 1.01,2013-03-05 07:50:00,
2013-03-05 01:55:00,25.0,23.0,28.64,East,87,3.0,5.4,92,0.00,,,-99.99,FreeWX-Wi 1.01,2013-03-05 07:55:00,
2013-03-05 02:00:00,24.8,23.0,28.64,East,87,3.0,4.0,93,0.00,,,-99.99,FreeWX-Wi 1.01,2013-03-05 08:00:00,
2013-03-05 02:05:00,24.8,23.0,28.61,East,87,3.0,4.9,93,0.00,,,-99.99,FreeWX-Wi 1.01,2013-03-05 08:05:00,
2013-03-05 02:10:00,25.0,23.2,28.61,East,87,3.0,4.5,93,0.00,,,-99.99,FreeWX-Wi 1.01,2013-03-05 08:10:00,
2013-03-05 02:15:00,25.0,23.2,28.61,East,89,3.0,5.4,93,0.00,,,-99.99,FreeWX-Wi 1.01,2013-03-05 08:15:00,
2013-03-05 02:20:00,25.0,23.2,28.61,East,90,3.0,5.4,93,0.00,,,-99.99,FreeWX-Wi 1.01,2013-03-05 08:20:00,
2013-03-05 02:26:00,24.8,23.0,28.61,East,91,4.0,4.9,93,0.00,,,-99.99,FreeWX-Wi 1.01,2013-03-05 08:26:00,
2013-03-05 02:31:00,24.8,23.0,28.61,East,93,4.0,4.9,93,0.00,,,-99.99,FreeWX-Wi 1.01,2013-03-05 08:31:00,
2013-03-05 02:36:00,24.8,23.4,28.61,East,94,4.0,5.4,94,0.00,,,-99.99,FreeWX-Wi 1.01,2013-03-05 08:36:00,
2013-03-05 02:41:00,24.8,23.4,28.61,East,94,4.0,5.4,94,0.00,,,-99.99,FreeWX-Wi 1.01,2013-03-05 08:41:00,
2013-03-05 02:46:00,24.8,23.4,28.61,East,93,4.0,5.4,94,0.00,,,-99.99,FreeWX-Wi 1.01,2013-03-05 08:46:00,
2013-03-05 02:51:00,24.8,23.4,28.61,East,94,4.0,4.9,94,0.00,,,-99.99,FreeWX-Wi 1.01,2013-03-05 08:51:00,
2013-03-05 02:56:00,24.8,23.4,28.61,East,94,4.0,5.4,94,0.00,,,-99.99,FreeWX-Wi 1.01,2013-03-05 08:56:00,
2013-03-05 03:01:00,24.8,23.4,28.61,East,95,4.0,4.9,94,0.00,,,-99.99,FreeWX-Wi 1.01,2013-03-05 09:01:00,
2013-03-05 03:06:00,24.8,23.4,28.61,East,95,4.0,4.9,94,0.00,,,-99.99,FreeWX-Wi 1.01,2013-03-05 09:06:00,
2013-03-05 03:11:00,24.8,23.4,28.61,East,96,4.0,4.0,94,0.00,,,-99.99,FreeWX-Wi 1.01,2013-03-05 09:11:00,
2013-03-05 03:16:00,24.8,23.4,28.61,East,96,4.0,4.0,94,0.00,,,-99.99,FreeWX-Wi 1.01,2013-03-05 09:16:00,
2013-03-05 03:21:00,24.8,23.4,28.61,East,96,3.0,4.0,94,0.00,,,-99.99,FreeWX-Wi 1.01,2013-03-05 09:21:00,
2013-03-05 03:26:00,24.8,23.4,28.61,East,96,3.0,3.6,94,0.00,,,-99.99,FreeWX-Wi 1.01,2013-03-05 09:26:00,
2013-03-05 03:31:00,24.8,23.4,28.61,East,96,3.0,4.0,94,0.00,,,-99.99,FreeWX-Wi 1.01,2013-03-05 09:31:00,
2013-03-05 03:37:00,24.8,23.4,28.61,East,96,3.0,3.6,94,0.00,,,-99.99,FreeWX-Wi 1.01,2013-03-05 09:37:00,
2013-03-05 03:42:00,24.8,23.4,28.61,East,97,3.0,3.1,94,0.00,,,-99.99,FreeWX-Wi 1.01,2013-03-05 09:42:00,
2013-03-05 03:47:00,24.8,23.4,28.61,East,98,3.0,3.0,94,0.00,,,-99.99,FreeWX-Wi 1.01,2013-03-05 09:47:00,
2013-03-05 03:52:00,24.8,23.4,28.61,East,98,2.0,2.7,94,0.00,,,-99.99,FreeWX-Wi 1.01,2013-03-05 09:52:00,
2013-03-05 03:57:00,24.8,23.5,28.61,East,99,2.0,2.7,95,0.00,,,-99.99,FreeWX-Wi 1.01,2013-03-05 09:57:00,
2013-03-05 04:02:00,24.8,23.5,28.61,East,99,2.0,2.7,95,0.00,,,-99.99,FreeWX-Wi 1.01,2013-03-05 10:02:00,
2013-03-05 04:07:00,24.8,23.5,28.61,East,99,2.0,2.7,95,0.00,,,-99.99,FreeWX-Wi 1.01,2013-03-05 10:07:00,
2013-03-05 04:12:00,24.8,23.5,28.61,East,98,2.0,3.6,95,0.00,,,-99.99,FreeWX-Wi 1.01,2013-03-05 10:12:00,
2013-03-05 04:17:00,24.8,23.5,28.61,East,97,2.0,4.0,95,0.00,,,-99.99,FreeWX-Wi 1.01,2013-03-05 10:17:00,
2013-03-05 04:22:00,24.8,23.5,28.61,East,96,2.0,3.6,95,0.00,,,-99.99,FreeWX-Wi 1.01,2013-03-05 10:22:00,
2013-03-05 04:27:00,24.8,23.5,28.61,East,95,3.0,4.0,95,0.00,,,-99.99,FreeWX-Wi 1.01,2013-03-05 10:27:00,
2013-03-05 04:32:00,24.8,23.4,28.61,East,95,3.0,4.5,94,0.00,,,-99.99,FreeWX-Wi 1.01,2013-03-05 10:32:00,
2013-03-05 04:37:00,24.8,23.4,28.61,East,94,3.0,4.0,94,0.00,,,-99.99,FreeWX-Wi 1.01,2013-03-05 10:37:00,
2013-03-05 04:43:00,24.8,23.4,28.61,East,94,3.0,4.0,94,0.00,,,-99.99,FreeWX-Wi 1.01,2013-03-05 10:43:00,
2013-03-05 04:48:00,25.0,23.5,28.61,East,94,3.0,5.4,94,0.00,,,-99.99,FreeWX-Wi 1.01,2013-03-05 10:48:00,
2013-03-05 04:53:00,25.0,23.5,28.61,East,94,4.0,5.4,94,0.00,,,-99.99,FreeWX-Wi 1.01,2013-03-05 10:53:00,
2013-03-05 04:58:00,25.0,23.5,28.61,East,94,4.0,5.4,94,0.00,,,-99.99,FreeWX-Wi 1.01,2013-03-05 10:58:00,
2013-03-05 05:03:00,25.0,23.5,28.61,East,94,4.0,5.8,94,0.00,,,-99.99,FreeWX-Wi 1.01,2013-03-05 11:03:00,
2013-03-05 05:08:00,25.0,23.5,28.61,East,93,4.0,5.8,94,0.00,,,-99.99,FreeWX-Wi 1.01,2013-03-05 11:08:00,
2013-03-05 05:13:00,25.0,23.5,28.61,East,93,4.0,5.8,94,0.00,,,-99.99,FreeWX-Wi 1.01,2013-03-05 11:13:00,
2013-03-05 05:18:00,25.0,23.5,28.61,East,93,4.0,5.8,94,0.00,,,-99.99,FreeWX-Wi 1.01,2013-03-05 11:18:00,
2013-03-05 05:23:00,25.0,23.5,28.61,East,95,4.0,5.8,94,0.00,,,-99.99,FreeWX-Wi 1.01,2013-03-05 11:23:00,
2013-03-05 05:29:00,25.0,23.5,28.61,East,96,4.0,5.4,94,0.00,,,-99.99,FreeWX-Wi 1.01,2013-03-05 11:29:00,
2013-03-05 05:34:00,25.0,23.5,28.61,East,96,4.0,4.9,94,0.00,,,-99.99,FreeWX-Wi 1.01,2013-03-05 11:34:00,
2013-03-05 05:39:00,25.0,23.5,28.61,East,97,4.0,5.8,94,0.00,,,-99.99,FreeWX-Wi 1.01,2013-03-05 11:39:00,
2013-03-05 05:44:00,25.0,23.5,28.61,East,97,4.0,5.4,94,0.00,,,-99.99,FreeWX-Wi 1.01,2013-03-05 11:44:00,
2013-03-05 05:49:00,24.8,23.4,28.61,East,96,4.0,4.9,94,0.00,,,-99.99,FreeWX-Wi 1.01,2013-03-05 11:49:00,
2013-03-05 05:54:00,25.0,23.5,28.61,East,94,4.0,5.4,94,0.00,,,-99.99,FreeWX-Wi 1.01,2013-03-05 11:54:00,
2013-03-05 05:59:00,25.0,23.5,28.61,East,94,4.0,5.8,94,0.00,,,-99.99,FreeWX-Wi 1.01,2013-03-05 11:59:00,
2013-03-05 06:04:00,25.0,23.5,28.61,East,95,4.0,4.9,94,0.00,,,-99.99,FreeWX-Wi 1.01,2013-03-05 12:04:00,
2013-03-05 06:09:00,24.8,23.4,28.61,East,95,4.0,4.9,94,0.00,,,-99.99,FreeWX-Wi 1.01,2013-03-05 12:09:00,
2013-03-05 06:14:00,24.8,23.4,28.61,East,95,4.0,4.5,94,0.00,,,-99.99,FreeWX-Wi 1.01,2013-03-05 12:14:00,
2013-03-05 06:19:00,24.8,23.4,28.61,East,96,4.0,4.5,94,0.00,,,-99.99,FreeWX-Wi 1.01,2013-03-05 12:19:00,
2013-03-05 06:24:00,24.8,23.4,28.61,East,97,4.0,4.0,94,0.00,,,-99.99,FreeWX-Wi 1.01,2013-03-05 12:24:00,
2013-03-05 06:30:00,24.8,23.4,28.61,East,97,3.0,4.0,94,0.00,,,-99.99,FreeWX-Wi 1.01,2013-03-05 12:30:00,
2013-03-05 06:35:00,24.6,23.2,28.64,East,98,3.0,4.0,94,0.00,,,-99.99,FreeWX-Wi 1.01,2013-03-05 12:35:00,
2013-03-05 06:40:00,24.6,23.2,28.64,East,100,3.0,3.1,94,0.00,,,-99.99,FreeWX-Wi 1.01,2013-03-05 12:40:00,
2013-03-05 06:45:00,24.6,23.2,28.64,East,101,3.0,3.0,94,0.00,,,-99.99,FreeWX-Wi 1.01,2013-03-05 12:45:00,
2013-03-05 06:50:00,24.6,23.2,28.64,ESE,103,3.0,3.1,94,0.00,,,-99.99,FreeWX-Wi 1.01,2013-03-05 12:50:00,
2013-03-05 06:55:00,24.6,23.2,28.64,ESE,103,2.0,3.6,94,0.00,,,-99.99,FreeWX-Wi 1.01,2013-03-05 12:55:00,
2013-03-05 07:00:00,24.6,23.2,28.64,ESE,103,2.0,3.6,94,0.00,,,-99.99,FreeWX-Wi 1.01,2013-03-05 13:00:00,
2013-03-05 07:05:00,24.8,23.5,28.61,ESE,103,2.0,3.1,95,0.00,,,-99.99,FreeWX-Wi 1.01,2013-03-05 13:05:00,
2013-03-05 07:10:00,24.8,23.5,28.61,ESE,102,2.0,3.1,95,0.00,,,-99.99,FreeWX-Wi 1.01,2013-03-05 13:10:00,
2013-03-05 07:15:00,24.8,23.5,28.61,East,101,2.0,3.6,95,0.00,,,-99.99,FreeWX-Wi 1.01,2013-03-05 13:15:00,
2013-03-05 07:20:00,25.0,23.5,28.61,East,100,2.0,3.1,94,0.00,,,-99.99,FreeWX-Wi 1.01,2013-03-05 13:20:00,
2013-03-05 07:25:00,25.2,23.7,28.61,East,100,2.0,3.6,94,0.00,,,-99.99,FreeWX-Wi 1.01,2013-03-05 13:25:00,
2013-03-05 07:31:00,25.2,23.7,28.61,East,100,2.0,2.7,94,0.00,,,-99.99,FreeWX-Wi 1.01,2013-03-05 13:31:00,
2013-03-05 07:36:00,25.3,23.9,28.61,East,100,2.0,2.7,94,0.00,,,-99.99,FreeWX-Wi 1.01,2013-03-05 13:36:00,
2013-03-05 07:41:00,25.3,23.9,28.61,East,101,2.0,3.1,94,0.00,,,-99.99,FreeWX-Wi 1.01,2013-03-05 13:41:00,
2013-03-05 07:46:00,25.5,24.1,28.64,ESE,102,2.0,3.1,94,0.00,,,-99.99,FreeWX-Wi 1.01,2013-03-05 13:46:00,
2013-03-05 07:51:00,25.7,24.4,28.64,ESE,104,2.0,3.1,95,0.00,,,-99.99,FreeWX-Wi 1.01,2013-03-05 13:51:00,
2013-03-05 07:56:00,26.1,24.8,28.64,ESE,105,2.0,3.1,95,0.00,,,-99.99,FreeWX-Wi 1.01,2013-03-05 13:56:00,
2013-03-05 08:01:00,26.2,25.0,28.64,ESE,107,2.0,3.1,95,0.00,,,-99.99,FreeWX-Wi 1.01,2013-03-05 14:01:00,
2013-03-05 08:06:00,26.4,25.2,28.64,ESE,108,2.0,2.7,95,0.00,,,-99.99,FreeWX-Wi 1.01,2013-03-05 14:06:00,
2013-03-05 08:11:00,26.8,25.5,28.64,ESE,108,2.0,2.2,95,0.00,,,-99.99,FreeWX-Wi 1.01,2013-03-05 14:11:00,
2013-03-05 08:16:00,26.6,25.2,28.64,ESE,109,1.0,0.0,94,0.00,,,-99.99,FreeWX-Wi 1.01,2013-03-05 14:16:00,
2013-03-05 08:21:00,26.6,24.6,28.64,ESE,107,1.0,0.0,92,0.00,,,-99.99,FreeWX-Wi 1.01,2013-03-05 14:21:00,
2013-03-05 08:26:00,26.8,23.9,28.64,North,-999,0.0,0.0,89,0.00,,,-99.99,FreeWX-Wi 1.01,2013-03-05 14:26:00,
2013-03-05 08:31:00,26.8,22.8,28.64,North,-999,0.0,0.0,85,0.00,,,-99.99,FreeWX-Wi 1.01,2013-03-05 14:31:00,
2013-03-05 08:36:00,27.0,22.5,28.64,North,-999,0.0,0.0,83,0.00,,,-99.99,FreeWX-Wi 1.01,2013-03-05 14:36:00,
2013-03-05 08:42:00,27.0,22.3,28.64,North,-999,0.0,0.0,82,0.00,,,-99.99,FreeWX-Wi 1.01,2013-03-05 14:42:00,
2013-03-05 08:47:00,27.5,22.5,28.64,North,-999,0.0,3.6,81,0.00,,,-99.99,FreeWX-Wi 1.01,2013-03-05 14:47:00,
2013-03-05 08:52:00,27.9,22.3,28.64,ENE,76,1.0,3.1,79,0.00,,,-99.99,FreeWX-Wi 1.01,2013-03-05 14:52:00,
2013-03-05 08:57:00,27.9,21.6,28.64,ENE,76,1.0,3.6,77,0.00,,,-99.99,FreeWX-Wi 1.01,2013-03-05 14:57:00,
2013-03-05 09:02:00,27.9,21.4,28.64,ENE,75,2.0,4.0,76,0.00,,,-99.99,FreeWX-Wi 1.01,2013-03-05 15:02:00,
2013-03-05 09:07:00,27.7,20.8,28.64,ENE,75,2.0,4.0,75,0.00,,,-99.99,FreeWX-Wi 1.01,2013-03-05 15:07:00,
2013-03-05 09:13:00,27.7,21.2,28.64,ENE,76,3.0,4.0,76,0.00,,,-99.99,FreeWX-Wi 1.01,2013-03-05 15:13:00,
2013-03-05 09:18:00,27.9,21.4,28.64,ENE,77,3.0,4.0,76,0.00,,,-99.99,FreeWX-Wi 1.01,2013-03-05 15:18:00,
2013-03-05 09:23:00,27.9,21.6,28.64,ENE,75,3.0,6.3,77,0.00,,,-99.99,FreeWX-Wi 1.01,2013-03-05 15:23:00,
2013-03-05 09:28:00,28.2,21.6,28.64,ENE,65,3.0,6.3,76,0.00,,,-99.99,FreeWX-Wi 1.01,2013-03-05 15:28:00,
2013-03-05 09:33:00,28.4,20.8,28.64,NE,55,3.0,5.4,73,0.00,,,-99.99,FreeWX-Wi 1.01,2013-03-05 15:33:00,
2013-03-05 09:38:00,27.9,19.9,28.64,NE,53,3.0,3.6,72,0.00,,,-99.99,FreeWX-Wi 1.01,2013-03-05 15:38:00,
2013-03-05 09:43:00,27.7,20.1,28.64,NE,49,3.0,3.6,73,0.00,,,-99.99,FreeWX-Wi 1.01,2013-03-05 15:43:00,
2013-03-05 09:48:00,27.9,20.3,28.64,NE,46,2.0,4.0,73,0.00,,,-99.99,FreeWX-Wi 1.01,2013-03-05 15:48:00,
2013-03-05 09:53:00,28.2,20.7,28.64,NE,52,2.0,3.6,73,0.00,,,-99.99,FreeWX-Wi 1.01,2013-03-05 15:53:00,
2013-03-05 09:59:00,28.6,20.5,28.64,NE,56,2.0,3.6,71,0.00,,,-99.99,FreeWX-Wi 1.01,2013-03-05 15:59:00,
2013-03-05 10:04:00,28.8,20.5,28.64,ENE,58,2.0,5.8,71,0.00,,,-99.99,FreeWX-Wi 1.01,2013-03-05 16:04:00,
2013-03-05 10:09:00,29.3,20.8,28.64,NE,52,2.0,6.3,70,0.00,,,-99.99,FreeWX-Wi 1.01,2013-03-05 16:09:00,
2013-03-05 10:14:00,29.8,21.0,28.64,NE,45,3.0,6.3,69,0.00,,,-99.99,FreeWX-Wi 1.01,2013-03-05 16:14:00,
2013-03-05 10:19:00,29.5,19.6,28.64,NE,36,4.0,6.3,66,0.00,,,-99.99,FreeWX-Wi 1.01,2013-03-05 16:19:00,
2013-03-05 10:24:00,29.3,20.1,28.64,NNE,29,4.0,6.3,68,0.00,,,-99.99,FreeWX-Wi 1.01,2013-03-05 16:24:00,
2013-03-05 10:29:00,28.6,19.8,28.64,NNE,25,4.0,7.2,69,0.00,,,-99.99,FreeWX-Wi 1.01,2013-03-05 16:29:00,
2013-03-05 10:34:00,28.8,19.9,28.64,NNE,24,5.0,8.3,69,0.00,,,-99.99,FreeWX-Wi 1.01,2013-03-05 16:34:00,
2013-03-05 10:39:00,29.5,20.3,28.64,NNE,23,5.0,8.1,68,0.00,,,-99.99,FreeWX-Wi 1.01,2013-03-05 16:39:00,
2013-03-05 10:45:00,29.8,19.9,28.64,NNE,24,5.0,7.6,66,0.00,,,-99.99,FreeWX-Wi 1.01,2013-03-05 16:45:00,
2013-03-05 10:50:00,29.1,20.3,28.64,NNE,23,5.0,8.3,69,0.00,,,-99.99,FreeWX-Wi 1.01,2013-03-05 16:50:00,
2013-03-05 10:55:00,29.1,20.7,28.64,NNE,23,5.0,8.7,70,0.00,,,-99.99,FreeWX-Wi 1.01,2013-03-05 16:55:00,
2013-03-05 11:00:00,29.3,20.8,28.64,NNE,21,6.0,8.7,70,0.00,,,-99.99,FreeWX-Wi 1.01,2013-03-05 17:00:00,
2013-03-05 11:05:00,28.8,19.6,28.67,NNE,20,6.0,8.3,68,0.00,,,-99.99,FreeWX-Wi 1.01,2013-03-05 17:05:00,
2013-03-05 11:10:00,29.1,19.6,28.67,NNE,20,6.0,8.7,67,0.00,,,-99.99,FreeWX-Wi 1.01,2013-03-05 17:10:00,
2013-03-05 11:15:00,28.8,19.6,28.67,NNE,20,5.0,8.1,68,0.00,,,-99.99,FreeWX-Wi 1.01,2013-03-05 17:15:00,
2013-03-05 11:20:00,29.3,19.8,28.64,NNE,22,6.0,10.1,67,0.00,,,-99.99,FreeWX-Wi 1.01,2013-03-05 17:20:00,
2013-03-05 11:26:00,29.3,20.1,28.64,NNE,24,6.0,8.1,68,0.00,,,-99.99,FreeWX-Wi 1.01,2013-03-05 17:26:00,
2013-03-05 11:31:00,29.5,19.2,28.67,NNE,25,6.0,10.1,65,0.00,,,-99.99,FreeWX-Wi 1.01,2013-03-05 17:31:00,
2013-03-05 11:36:00,30.0,19.0,28.67,NNE,25,6.0,10.1,63,0.00,,,-99.99,FreeWX-Wi 1.01,2013-03-05 17:36:00,
2013-03-05 11:41:00,30.0,19.4,28.67,NNE,25,6.0,11.0,64,0.00,,,-99.99,FreeWX-Wi 1.01,2013-03-05 17:41:00,
2013-03-05 11:46:00,30.2,20.3,28.67,NNE,23,6.0,11.0,66,0.00,,,-99.99,FreeWX-Wi 1.01,2013-03-05 17:46:00,
2013-03-05 11:51:00,30.2,19.2,28.67,NNE,21,6.0,10.5,63,0.00,,,-99.99,FreeWX-Wi 1.01,2013-03-05 17:51:00,
2013-03-05 11:56:00,30.4,18.5,28.67,NNE,19,7.0,10.5,61,0.00,,,-99.99,FreeWX-Wi 1.01,2013-03-05 17:56:00,
2013-03-05 12:01:00,30.0,19.4,28.64,NNE,18,7.0,11.0,64,0.00,,,-99.99,FreeWX-Wi 1.01,2013-03-05 18:01:00,
2013-03-05 12:07:00,30.0,19.4,28.64,NNE,17,7.0,11.0,64,0.00,,,-99.99,FreeWX-Wi 1.01,2013-03-05 18:07:00,
2013-03-05 12:12:00,30.2,19.6,28.64,NNE,16,7.0,8.7,64,0.00,,,-99.99,FreeWX-Wi 1.01,2013-03-05 18:12:00,
2013-03-05 12:17:00,30.0,18.7,28.67,NNE,17,7.0,12.8,62,0.00,,,-99.99,FreeWX-Wi 1.01,2013-03-05 18:17:00,
2013-03-05 12:22:00,29.7,18.7,28.67,NNE,19,8.0,12.3,63,0.00,,,-99.99,FreeWX-Wi 1.01,2013-03-05 18:22:00,
2013-03-05 12:27:00,29.5,18.9,28.67,NNE,19,8.0,10.5,64,0.00,,,-99.99,FreeWX-Wi 1.01,2013-03-05 18:27:00,
2013-03-05 12:32:00,29.3,18.7,28.67,NNE,20,8.0,10.5,64,0.00,,,-99.99,FreeWX-Wi 1.01,2013-03-05 18:32:00,
2013-03-05 12:37:00,29.5,19.2,28.67,NNE,22,8.0,10.5,65,0.00,,,-99.99,FreeWX-Wi 1.01,2013-03-05 18:37:00,
2013-03-05 12:42:00,28.9,18.0,28.67,NNE,23,8.0,11.9,63,0.04,,,-99.99,FreeWX-Wi 1.01,2013-03-05 18:42:00,
2013-03-05 12:47:00,29.8,19.2,28.67,NNE,22,8.0,11.0,64,0.04,,,-99.99,FreeWX-Wi 1.01,2013-03-05 18:47:00,
2013-03-05 12:52:00,30.4,18.1,28.67,NNE,18,8.0,8.3,60,0.04,,,-99.99,FreeWX-Wi 1.01,2013-03-05 18:52:00,
2013-03-05 12:57:00,30.7,18.5,28.67,NNE,15,8.0,11.0,60,0.08,,,-99.99,FreeWX-Wi 1.01,2013-03-05 18:57:00,
2013-03-05 13:03:00,31.3,19.0,28.67,NNE,14,7.0,8.7,60,0.08,,,-99.99,FreeWX-Wi 1.01,2013-03-05 19:03:00,
2013-03-05 13:08:00,31.1,17.6,28.67,North,10,7.0,12.8,57,0.08,,,-99.99,FreeWX-Wi 1.01,2013-03-05 19:08:00,
2013-03-05 13:13:00,30.9,17.1,28.67,North,5,7.0,11.0,56,0.12,,,-99.99,FreeWX-Wi 1.01,2013-03-05 19:13:00,
2013-03-05 13:18:00,30.9,17.4,28.70,North,4,7.0,8.3,57,0.12,,,-99.99,FreeWX-Wi 1.01,2013-03-05 19:18:00,
2013-03-05 13:23:00,30.4,18.1,28.70,North,3,7.0,10.5,60,0.12,,,-99.99,FreeWX-Wi 1.01,2013-03-05 19:23:00,
2013-03-05 13:28:00,29.8,18.5,28.70,North,3,7.0,12.3,62,0.12,,,-99.99,FreeWX-Wi 1.01,2013-03-05 19:28:00,
2013-03-05 13:33:00,30.0,18.7,28.70,North,3,8.0,12.8,62,0.12,,,-99.99,FreeWX-Wi 1.01,2013-03-05 19:33:00,
2013-03-05 13:38:00,30.4,18.1,28.70,North,1,8.0,10.5,60,0.12,,,-99.99,FreeWX-Wi 1.01,2013-03-05 19:38:00,
2013-03-05 13:43:00,30.9,18.3,28.70,North,0,7.0,10.1,59,0.08,,,-99.99,FreeWX-Wi 1.01,2013-03-05 19:43:00,
2013-03-05 13:48:00,31.3,17.8,28.70,North,357,8.0,11.0,57,0.08,,,-99.99,FreeWX-Wi 1.01,2013-03-05 19:48:00,
2013-03-05 13:53:00,31.1,16.9,28.70,North,354,8.0,9.2,55,0.04,,,-99.99,FreeWX-Wi 1.01,2013-03-05 19:53:00,
2013-03-05 13:58:00,30.7,16.5,28.70,North,351,7.0,8.7,55,0.08,,,-99.99,FreeWX-Wi 1.01,2013-03-05 19:58:00,
2013-03-05 14:04:00,29.5,15.8,28.70,North,349,8.0,12.8,56,0.08,,,-99.99,FreeWX-Wi 1.01,2013-03-05 20:04:00,
2013-03-05 14:09:00,29.3,18.3,28.70,NNW,348,8.0,11.0,63,0.08,,,-99.99,FreeWX-Wi 1.01,2013-03-05 20:09:00,
2013-03-05 14:14:00,28.4,16.3,28.70,NNW,348,8.0,10.1,60,0.04,,,-99.99,FreeWX-Wi 1.01,2013-03-05 20:14:00,
2013-03-05 14:19:00,28.8,15.8,28.70,North,350,8.0,11.0,58,0.04,,,-99.99,FreeWX-Wi 1.01,2013-03-05 20:19:00,
2013-03-05 14:24:00,29.1,16.2,28.70,North,351,8.0,15.4,58,0.04,,,-99.99,FreeWX-Wi 1.01,2013-03-05 20:24:00,
2013-03-05 14:29:00,30.0,16.7,28.70,North,351,8.0,9.2,57,0.04,,,-99.99,FreeWX-Wi 1.01,2013-03-05 20:29:00,
2013-03-05 14:34:00,29.8,16.2,28.70,North,351,8.0,12.3,56,0.04,,,-99.99,FreeWX-Wi 1.01,2013-03-05 20:34:00,
2013-03-05 14:39:00,29.3,15.6,28.70,North,350,8.0,10.1,56,0.04,,,-99.99,FreeWX-Wi 1.01,2013-03-05 20:39:00,
2013-03-05 14:44:00,28.6,18.3,28.70,North,349,8.0,9.2,65,0.04,,,-99.99,FreeWX-Wi 1.01,2013-03-05 20:44:00,
2013-03-05 14:50:00,28.0,19.6,28.70,NNW,347,7.0,8.3,70,0.04,,,-99.99,FreeWX-Wi 1.01,2013-03-05 20:50:00,
2013-03-05 14:55:00,29.1,20.7,28.70,NNW,346,7.0,11.0,70,0.04,,,-99.99,FreeWX-Wi 1.01,2013-03-05 20:55:00,
2013-03-05 15:00:00,30.0,19.4,28.70,NNW,345,7.0,11.0,64,0.00,,,-99.99,FreeWX-Wi 1.01,2013-03-05 21:00:00,
2013-03-05 15:05:00,28.4,18.5,28.73,NNW,341,7.0,8.3,66,0.00,,,-99.99,FreeWX-Wi 1.01,2013-03-05 21:05:00,
2013-03-05 15:10:00,28.2,19.4,28.73,NNW,340,7.0,8.7,69,0.00,,,-99.99,FreeWX-Wi 1.01,2013-03-05 21:10:00,
2013-03-05 15:15:00,28.4,19.2,28.73,NNW,339,6.0,8.7,68,0.00,,,-99.99,FreeWX-Wi 1.01,2013-03-05 21:15:00,
2013-03-05 15:20:00,28.2,19.0,28.70,NNW,339,6.0,8.7,68,0.00,,,-99.99,FreeWX-Wi 1.01,2013-03-05 21:20:00,
2013-03-05 15:25:00,27.7,19.2,28.70,NNW,337,6.0,8.1,70,0.00,,,-99.99,FreeWX-Wi 1.01,2013-03-05 21:25:00,
2013-03-05 15:30:00,27.5,19.8,28.70,NNW,336,6.0,8.1,72,0.00,,,-99.99,FreeWX-Wi 1.01,2013-03-05 21:30:00,
2013-03-05 15:35:00,27.7,20.5,28.73,NNW,337,6.0,8.7,74,0.00,,,-99.99,FreeWX-Wi 1.01,2013-03-05 21:35:00,
2013-03-05 15:40:00,27.9,20.3,28.73,NNW,337,6.0,9.6,73,0.00,,,-99.99,FreeWX-Wi 1.01,2013-03-05 21:40:00,
2013-03-05 15:45:00,27.7,18.9,28.73,NNW,339,6.0,10.5,69,0.00,,,-99.99,FreeWX-Wi 1.01,2013-03-05 21:45:00,
2013-03-05 15:50:00,27.3,19.2,28.73,NNW,339,7.0,10.1,71,0.00,,,-99.99,FreeWX-Wi 1.01,2013-03-05 21:50:00,
2013-03-05 15:56:00,27.3,18.9,28.73,NNW,340,7.0,11.0,70,0.00,,,-99.99,FreeWX-Wi 1.01,2013-03-05 21:56:00,
2013-03-05 16:01:00,27.1,19.0,28.76,NNW,341,8.0,11.0,71,0.00,,,-99.99,FreeWX-Wi 1.01,2013-03-05 22:01:00,
2013-03-05 16:06:00,27.5,19.0,28.76,NNW,342,8.0,11.0,70,0.00,,,-99.99,FreeWX-Wi 1.01,2013-03-05 22:06:00,
2013-03-05 16:11:00,27.3,17.4,28.76,NNW,342,8.0,11.0,66,0.00,,,-99.99,FreeWX-Wi 1.01,2013-03-05 22:11:00,
2013-03-05 16:16:00,27.0,18.1,28.73,NNW,342,8.0,10.1,69,0.00,,,-99.99,FreeWX-Wi 1.01,2013-03-05 22:16:00,
2013-03-05 16:21:00,26.6,18.5,28.73,NNW,342,8.0,9.6,71,0.00,,,-99.99,FreeWX-Wi 1.01,2013-03-05 22:21:00,
2013-03-05 16:26:00,26.4,18.3,28.73,NNW,341,8.0,9.6,71,0.00,,,-99.99,FreeWX-Wi 1.01,2013-03-05 22:26:00,
2013-03-05 16:31:00,26.4,18.3,28.76,NNW,340,8.0,10.1,71,0.00,,,-99.99,FreeWX-Wi 1.01,2013-03-05 22:31:00,
2013-03-05 16:36:00,26.4,18.7,28.76,NNW,340,7.0,10.5,72,0.00,,,-99.99,FreeWX-Wi 1.01,2013-03-05 22:36:00,
2013-03-05 16:41:00,26.2,18.5,28.76,NNW,338,7.0,10.1,72,0.00,,,-99.99,FreeWX-Wi 1.01,2013-03-05 22:41:00,
2013-03-05 16:46:00,26.2,18.5,28.76,NNW,338,7.0,8.3,72,0.00,,,-99.99,FreeWX-Wi 1.01,2013-03-05 22:46:00,
2013-03-05 16:52:00,26.4,19.2,28.76,NNW,338,7.0,8.7,74,0.00,,,-99.99,FreeWX-Wi 1.01,2013-03-05 22:52:00,
2013-03-05 16:57:00,26.6,18.9,28.76,NNW,339,7.0,10.1,72,0.00,,,-99.99,FreeWX-Wi 1.01,2013-03-05 22:57:00,
2013-03-05 17:02:00,26.6,19.2,28.79,NNW,339,7.0,8.7,73,0.00,,,-99.99,FreeWX-Wi 1.01,2013-03-05 23:02:00,
2013-03-05 17:07:00,26.6,18.9,28.79,NNW,340,7.0,10.1,72,0.00,,,-99.99,FreeWX-Wi 1.01,2013-03-05 23:07:00,
2013-03-05 17:12:00,26.4,18.0,28.79,NNW,341,7.0,10.5,70,0.00,,,-99.99,FreeWX-Wi 1.01,2013-03-05 23:12:00,
2013-03-05 17:17:00,26.2,17.4,28.79,NNW,341,7.0,11.0,69,0.00,,,-99.99,FreeWX-Wi 1.01,2013-03-05 23:17:00,
2013-03-05 17:22:00,26.2,17.4,28.79,NNW,343,8.0,10.1,69,0.00,,,-99.99,FreeWX-Wi 1.01,2013-03-05 23:22:00,
2013-03-05 17:27:00,26.1,17.6,28.79,NNW,343,8.0,8.7,70,0.00,,,-99.99,FreeWX-Wi 1.01,2013-03-05 23:27:00,
2013-03-05 17:32:00,26.1,17.6,28.79,NNW,344,8.0,8.7,70,0.00,,,-99.99,FreeWX-Wi 1.01,2013-03-05 23:32:00,
2013-03-05 17:37:00,25.9,17.4,28.79,NNW,344,8.0,8.7,70,0.00,,,-99.99,FreeWX-Wi 1.01,2013-03-05 23:37:00,
2013-03-05 17:43:00,25.9,17.8,28.79,NNW,345,8.0,10.5,71,0.00,,,-99.99,FreeWX-Wi 1.01,2013-03-05 23:43:00,
2013-03-05 17:48:00,25.7,17.6,28.79,NNW,344,7.0,8.7,71,0.00,,,-99.99,FreeWX-Wi 1.01,2013-03-05 23:48:00,
2013-03-05 17:53:00,25.7,18.3,28.79,NNW,344,7.0,8.3,73,0.00,,,-99.99,FreeWX-Wi 1.01,2013-03-05 23:53:00,
2013-03-05 17:58:00,25.7,18.9,28.79,NNW,343,7.0,7.6,75,0.00,,,-99.99,FreeWX-Wi 1.01,2013-03-05 23:58:00,
2013-03-05 18:03:00,25.5,19.4,28.82,NNW,342,7.0,8.3,77,0.00,,,-99.99,FreeWX-Wi 1.01,2013-03-06 00:03:00,
2013-03-05 18:08:00,25.5,19.4,28.82,NNW,341,7.0,8.7,77,0.00,,,-99.99,FreeWX-Wi 1.01,2013-03-06 00:08:00,
2013-03-05 18:13:00,25.5,19.9,28.82,NNW,342,6.0,8.7,79,0.00,,,-99.99,FreeWX-Wi 1.01,2013-03-06 00:13:00,
2013-03-05 18:18:00,25.5,20.3,28.82,NNW,341,6.0,8.7,80,0.00,,,-99.99,FreeWX-Wi 1.01,2013-03-06 00:18:00,
2013-03-05 18:23:00,25.5,20.3,28.82,NNW,341,7.0,9.6,80,0.00,,,-99.99,FreeWX-Wi 1.01,2013-03-06 00:23:00,
2013-03-05 18:28:00,25.3,20.1,28.82,NNW,341,7.0,8.7,80,0.00,,,-99.99,FreeWX-Wi 1.01,2013-03-06 00:28:00,
2013-03-05 18:33:00,25.3,20.3,28.82,NNW,340,6.0,6.7,81,0.00,,,-99.99,FreeWX-Wi 1.01,2013-03-06 00:33:00,
2013-03-05 18:38:00,25.3,20.3,28.82,NNW,338,6.0,6.7,81,0.00,,,-99.99,FreeWX-Wi 1.01,2013-03-06 00:38:00,
2013-03-05 18:43:00,25.3,20.7,28.82,NNW,338,6.0,8.1,82,0.00,,,-99.99,FreeWX-Wi 1.01,2013-03-06 00:43:00,
2013-03-05 18:48:00,25.3,20.8,28.85,NNW,337,6.0,7.6,83,0.00,,,-99.99,FreeWX-Wi 1.01,2013-03-06 00:48:00,
2013-03-05 18:54:00,25.3,20.8,28.85,NNW,337,6.0,7.6,83,0.00,,,-99.99,FreeWX-Wi 1.01,2013-03-06 00:54:00,
2013-03-05 18:59:00,25.3,21.2,28.85,NNW,338,5.0,7.6,84,0.00,,,-99.99,FreeWX-Wi 1.01,2013-03-06 00:59:00,
2013-03-05 19:04:00,25.3,20.8,28.85,NNW,339,6.0,8.7,83,0.00,,,-99.99,FreeWX-Wi 1.01,2013-03-06 01:04:00,
2013-03-05 19:09:00,25.3,20.8,28.85,NNW,339,6.0,8.1,83,0.00,,,-99.99,FreeWX-Wi 1.01,2013-03-06 01:09:00,
2013-03-05 19:14:00,25.3,21.2,28.85,NNW,338,6.0,6.3,84,0.00,,,-99.99,FreeWX-Wi 1.01,2013-03-06 01:14:00,
2013-03-05 19:19:00,25.3,21.2,28.85,NNW,335,5.0,7.6,84,0.00,,,-99.99,FreeWX-Wi 1.01,2013-03-06 01:19:00,
2013-03-05 19:24:00,25.3,21.2,28.85,NNW,334,5.0,6.3,84,0.00,,,-99.99,FreeWX-Wi 1.01,2013-03-06 01:24:00,
2013-03-05 19:29:00,25.3,21.2,28.85,NNW,333,5.0,6.7,84,0.00,,,-99.99,FreeWX-Wi 1.01,2013-03-06 01:29:00,
2013-03-05 19:34:00,25.3,21.2,28.85,NNW,333,5.0,8.3,84,0.00,,,-99.99,FreeWX-Wi 1.01,2013-03-06 01:34:00,
2013-03-05 19:39:00,25.3,21.2,28.85,NNW,334,6.0,8.3,84,0.00,,,-99.99,FreeWX-Wi 1.01,2013-03-06 01:39:00,
2013-03-05 19:44:00,25.3,21.2,28.85,NNW,337,6.0,8.3,84,0.00,,,-99.99,FreeWX-Wi 1.01,2013-03-06 01:44:00,
2013-03-05 19:49:00,25.3,21.2,28.85,NNW,339,6.0,8.7,84,0.00,,,-99.99,FreeWX-Wi 1.01,2013-03-06 01:49:00,
2013-03-05 19:54:00,25.3,20.8,28.85,NNW,341,6.0,8.1,83,0.00,,,-99.99,FreeWX-Wi 1.01,2013-03-06 01:54:00,
2013-03-05 20:00:00,25.2,20.5,28.85,NNW,342,6.0,8.3,82,0.00,,,-99.99,FreeWX-Wi 1.01,2013-03-06 02:00:00,
2013-03-05 20:05:00,25.2,20.5,28.85,NNW,341,6.0,7.6,82,0.00,,,-99.99,FreeWX-Wi 1.01,2013-03-06 02:05:00,
2013-03-05 20:10:00,25.2,20.5,28.85,NNW,340,6.0,7.6,82,0.00,,,-99.99,FreeWX-Wi 1.01,2013-03-06 02:10:00,
2013-03-05 20:15:00,25.0,19.9,28.85,NNW,339,6.0,8.1,81,0.00,,,-99.99,FreeWX-Wi 1.01,2013-03-06 02:15:00,
2013-03-05 20:20:00,24.4,18.9,28.88,NNW,338,6.0,7.6,79,0.00,,,-99.99,FreeWX-Wi 1.01,2013-03-06 02:20:00,
2013-03-05 20:25:00,24.3,18.3,28.88,NNW,338,6.0,8.3,78,0.00,,,-99.99,FreeWX-Wi 1.01,2013-03-06 02:25:00,
2013-03-05 20:30:00,24.3,18.7,28.88,NNW,338,6.0,8.7,79,0.00,,,-99.99,FreeWX-Wi 1.01,2013-03-06 02:30:00,
2013-03-05 20:35:00,24.6,19.0,28.88,NNW,340,6.0,10.1,79,0.00,,,-99.99,FreeWX-Wi 1.01,2013-03-06 02:35:00,
2013-03-05 20:40:00,24.6,18.5,28.88,NNW,342,7.0,9.6,77,0.00,,,-99.99,FreeWX-Wi 1.01,2013-03-06 02:40:00,
2013-03-05 20:45:00,24.6,18.5,28.88,NNW,343,7.0,8.7,77,0.00,,,-99.99,FreeWX-Wi 1.01,2013-03-06 02:45:00,
2013-03-05 20:50:00,24.8,18.9,28.88,NNW,344,7.0,10.1,78,0.00,,,-99.99,FreeWX-Wi 1.01,2013-03-06 02:50:00,
2013-03-05 20:55:00,24.8,18.9,28.88,NNW,344,7.0,8.7,78,0.00,,,-99.99,FreeWX-Wi 1.01,2013-03-06 02:55:00,
2013-03-05 21:01:00,24.8,18.7,28.88,NNW,345,8.0,8.3,77,0.00,,,-99.99,FreeWX-Wi 1.01,2013-03-06 03:01:00,
2013-03-05 21:06:00,24.8,18.7,28.88,NNW,344,7.0,8.3,77,0.00,,,-99.99,FreeWX-Wi 1.01,2013-03-06 03:06:00,
2013-03-05 21:11:00,24.6,18.7,28.88,NNW,344,7.0,8.3,78,0.00,,,-99.99,FreeWX-Wi 1.01,2013-03-06 03:11:00,
2013-03-05 21:16:00,24.6,19.0,28.88,NNW,343,7.0,7.0,79,0.00,,,-99.99,FreeWX-Wi 1.01,2013-03-06 03:16:00,
2013-03-05 21:21:00,24.6,18.5,28.88,NNW,344,6.0,8.3,77,0.00,,,-99.99,FreeWX-Wi 1.01,2013-03-06 03:21:00,
2013-03-05 21:26:00,24.6,18.5,28.88,NNW,342,6.0,6.7,77,0.00,,,-99.99,FreeWX-Wi 1.01,2013-03-06 03:26:00,
2013-03-05 21:31:00,24.4,18.5,28.91,NNW,341,6.0,7.2,78,0.00,,,-99.99,FreeWX-Wi 1.01,2013-03-06 03:31:00,
2013-03-05 21:36:00,24.4,18.5,28.91,NNW,337,5.0,6.3,78,0.00,,,-99.99,FreeWX-Wi 1.01,2013-03-06 03:36:00,
2013-03-05 21:41:00,24.3,18.3,28.91,NNW,334,5.0,8.7,78,0.00,,,-99.99,FreeWX-Wi 1.01,2013-03-06 03:41:00,
2013-03-05 21:46:00,24.3,18.3,28.91,NNW,331,5.0,7.6,78,0.00,,,-99.99,FreeWX-Wi 1.01,2013-03-06 03:46:00,
2013-03-05 21:52:00,24.1,18.0,28.91,NNW,329,5.0,6.3,77,0.00,,,-99.99,FreeWX-Wi 1.01,2013-03-06 03:52:00,
2013-03-05 21:57:00,24.1,17.6,28.91,NNW,328,5.0,7.6,76,0.00,,,-99.99,FreeWX-Wi 1.01,2013-03-06 03:57:00,
2013-03-05 22:02:00,24.1,17.6,28.91,NNW,328,5.0,7.6,76,0.00,,,-99.99,FreeWX-Wi 1.01,2013-03-06 04:02:00,
2013-03-05 22:07:00,23.9,17.2,28.91,NNW,328,5.0,7.6,75,0.00,,,-99.99,FreeWX-Wi 1.01,2013-03-06 04:07:00,
2013-03-05 22:12:00,23.9,17.2,28.91,NNW,329,5.0,6.3,75,0.00,,,-99.99,FreeWX-Wi 1.01,2013-03-06 04:12:00,
2013-03-05 22:17:00,23.9,17.2,28.91,NNW,329,5.0,6.3,75,0.00,,,-99.99,FreeWX-Wi 1.01,2013-03-06 04:17:00,
2013-03-05 22:22:00,23.7,17.1,28.91,NNW,330,5.0,5.8,75,0.00,,,-99.99,FreeWX-Wi 1.01,2013-03-06 04:22:00,
2013-03-05 22:27:00,23.7,17.2,28.91,NNW,332,5.0,6.7,76,0.00,,,-99.99,FreeWX-Wi 1.01,2013-03-06 04:27:00,
2013-03-05 22:32:00,23.7,17.2,28.91,NNW,333,5.0,6.7,76,0.00,,,-99.99,FreeWX-Wi 1.01,2013-03-06 04:32:00,
2013-03-05 22:37:00,23.7,17.1,28.91,NNW,334,5.0,5.8,75,0.00,,,-99.99,FreeWX-Wi 1.01,2013-03-06 04:37:00,
2013-03-05 22:42:00,23.5,16.9,28.91,NNW,336,5.0,6.3,75,0.00,,,-99.99,FreeWX-Wi 1.01,2013-03-06 04:42:00,
2013-03-05 22:48:00,23.4,16.7,28.91,NNW,337,5.0,5.8,75,0.00,,,-99.99,FreeWX-Wi 1.01,2013-03-06 04:48:00,
2013-03-05 22:53:00,23.2,16.5,28.91,NNW,337,4.0,6.3,75,0.00,,,-99.99,FreeWX-Wi 1.01,2013-03-06 04:53:00,
2013-03-05 22:58:00,23.2,16.7,28.91,NNW,337,4.0,6.3,76,0.00,,,-99.99,FreeWX-Wi 1.01,2013-03-06 04:58:00,
2013-03-05 23:03:00,23.2,16.7,28.91,NNW,337,4.0,5.8,76,0.00,,,-99.99,FreeWX-Wi 1.01,2013-03-06 05:03:00,
2013-03-05 23:08:00,23.2,16.7,28.91,NNW,335,4.0,6.3,76,0.00,,,-99.99,FreeWX-Wi 1.01,2013-03-06 05:08:00,
2013-03-05 23:13:00,23.2,16.7,28.91,NNW,333,4.0,6.3,76,0.00,,,-99.99,FreeWX-Wi 1.01,2013-03-06 05:13:00,
2013-03-05 23:18:00,23.4,16.9,28.91,NNW,331,5.0,6.3,76,0.00,,,-99.99,FreeWX-Wi 1.01,2013-03-06 05:18:00,
2013-03-05 23:23:00,23.5,17.1,28.91,NNW,329,5.0,9.6,76,0.00,,,-99.99,FreeWX-Wi 1.01,2013-03-06 05:23:00,
2013-03-05 23:28:00,23.5,17.4,28.91,NNW,327,5.0,7.6,77,0.00,,,-99.99,FreeWX-Wi 1.01,2013-03-06 05:28:00,
2013-03-05 23:33:00,23.5,17.4,28.91,NW,325,5.0,8.1,77,0.00,,,-99.99,FreeWX-Wi 1.01,2013-03-06 05:33:00,
2013-03-05 23:38:00,23.5,17.1,28.91,NW,325,6.0,7.6,76,0.00,,,-99.99,FreeWX-Wi 1.01,2013-03-06 05:38:00,
2013-03-05 23:43:00,23.5,17.4,28.91,NW,325,6.0,7.6,77,0.00,,,-99.99,FreeWX-Wi 1.01,2013-03-06 05:43:00,
2013-03-05 23:48:00,23.5,17.1,28.94,NW,324,6.0,8.3,76,0.00,,,-99.99,FreeWX-Wi 1.01,2013-03-06 05:48:00,
2013-03-05 23:54:00,23.5,17.4,28.94,NW,325,6.0,9.6,77,0.00,,,-99.99,FreeWX-Wi 1.01,2013-03-06 05:54:00,
2013-03-05 23:59:00,23.4,17.2,28.94,NW,325,6.0,8.1,77,0.00,,,-99.99,FreeWX-Wi 1.01,2013-03-06 05:59:00,